EW7168 Weather Reports


Display with metric or nautical units.
time (UTC)temp
F
wind
direction
speed
MPH
gust
MPH
rain 1hr
in
rain 24hr
in
rain mn
in
humidity
%
barometer
mb
20190627104506 56 67 0.0 0.0 0.00 0.00 0.00 49 1022.5
20190627104006 57 67 0.0 0.0 0.00 0.00 0.00 49 1022.5
20190627103506 57 67 0.0 0.0 0.00 0.00 0.00 47 1022.5
20190627103006 57 30 0.0 0.0 0.00 0.00 0.00 46 1022.5
20190627102506 57 360 0.0 0.0 0.00 0.00 0.00 44 1022.3
20190627102006 58 360 1.0 2.0 0.00 0.00 0.00 45 1022.1
20190627101506 57 292 0.0 1.0 0.00 0.00 0.00 44 1022.1
20190627101006 58 292 0.0 0.0 0.00 0.00 0.00 44 1022.1
20190627100506 59 202 0.0 0.0 0.00 0.00 0.00 44 1022.1
20190627100007 58 202 0.0 1.0 0.00 0.00 0.00 43 1022.1
20190627095506 59 202 2.0 3.0 0.00 0.00 0.00 44 1022.1
20190627095007 59 202 1.0 2.0 0.00 0.00 0.00 44 1021.9
20190627094506 59 202 1.0 2.0 0.00 0.00 0.00 44 1021.8
20190627094006 58 247 0.0 0.0 0.00 0.00 0.00 42 1021.8
20190627093505 58 247 0.0 0.0 0.00 0.00 0.00 41 1021.7
20190627093007 59 247 0.0 0.0 0.00 0.00 0.00 41 1021.7
20190627092506 59 247 0.0 0.0 0.00 0.00 0.00 40 1021.7
20190627092006 60 247 0.0 0.0 0.00 0.00 0.00 40 1021.7
20190627091506 60 337 0.0 1.0 0.00 0.00 0.00 39 1021.7
20190627091006 60 213 0.0 2.0 0.00 0.00 0.00 38 1021.7
20190627090506 58 292 0.0 2.0 0.00 0.00 0.00 38 1021.3
20190627090007 59 267 1.0 3.0 0.00 0.00 0.00 40 1021.3
20190627085506 58 247 0.0 0.0 0.00 0.00 0.00 41 1021.3
20190627085006 57 292 0.0 0.0 0.00 0.00 0.00 41 1020.9
20190627084506 58 265 0.0 0.0 0.00 0.00 0.00 42 1020.9
20190627084006 58 247 0.0 0.0 0.00 0.00 0.00 43 1021.0
20190627083506 57 250 0.0 1.0 0.00 0.00 0.00 44 1020.9
20190627083006 57 247 0.0 0.0 0.00 0.00 0.00 44 1020.9
20190627082506 58 247 0.0 0.0 0.00 0.00 0.00 43 1020.9
20190627082006 58 247 0.0 0.0 0.00 0.00 0.00 43 1021.3
20190627081506 58 247 0.0 0.0 0.00 0.00 0.00 42 1021.3
20190627051506 66 247 0.0 0.0 0.00 0.00 0.00 38 1021.3
20190627051007 65 247 0.0 0.0 0.00 0.00 0.00 37 1021.3
20190627050505 66 247 1.0 2.0 0.00 0.00 0.00 38 1021.3
20190627050007 66 247 0.0 0.0 0.00 0.00 0.00 37 1021.3
20190627045507 67 247 0.0 0.0 0.00 0.00 0.00 37 1021.0
20190627045006 66 247 1.0 2.0 0.00 0.00 0.00 35 1021.2
20190627044506 67 247 2.0 3.0 0.00 0.00 0.00 36 1021.2
20190627044006 68 247 1.0 2.0 0.00 0.00 0.00 36 1021.3
20190627043506 68 247 1.0 2.0 0.00 0.00 0.00 36 1021.3
20190627043007 68 292 1.0 2.0 0.00 0.00 0.00 36 1021.3
20190627042506 68 292 0.0 1.0 0.00 0.00 0.00 36 1021.3
20190627042008 67 247 1.0 2.0 0.00 0.00 0.00 36 1021.3
20190627041507 68 256 1.0 2.0 0.00 0.00 0.00 37 1021.3
20190627041007 68 202 0.0 0.0 0.00 0.00 0.00 36 1021.3
20190627040508 68 247 1.0 2.0 0.00 0.00 0.00 36 1021.3
20190627040005 68 292 1.0 2.0 0.00 0.00 0.00 36 1021.3
20190627035506 69 225 0.0 1.0 0.00 0.00 0.00 36 1021.2
20190627035006 69 284 0.0 1.0 0.00 0.00 0.00 37 1020.9
20190627034506 69 202 0.0 1.0 0.00 0.00 0.00 38 1020.9
20190627034007 69 240 1.0 2.0 0.00 0.00 0.00 37 1020.9
20190627033506 70 225 1.0 2.0 0.00 0.00 0.00 36 1020.6
20190627033007 69 240 2.0 2.0 0.00 0.00 0.00 35 1020.4
20190627032506 70 247 2.0 3.0 0.00 0.00 0.00 35 1020.1
20190627032006 70 263 1.0 2.0 0.00 0.00 0.00 35 1020.1
20190627031506 70 337 0.0 0.0 0.00 0.00 0.00 35 1020.1
20190627031006 70 1 0.0 0.0 0.00 0.00 0.00 36 1019.7
20190627030506 70 292 0.0 0.0 0.00 0.00 0.00 35 1019.7
20190627030008 71 292 0.0 0.0 0.00 0.00 0.00 35 1019.7
20190627025506 72 292 0.0 0.0 0.00 0.00 0.00 35 1019.7
20190627025006 73 292 0.0 0.0 0.00 0.00 0.00 32 1019.3
20190627024506 74 292 0.0 0.0 0.00 0.00 0.00 32 1019.3
20190627024005 74 292 0.0 0.0 0.00 0.00 0.00 31 1019.2
20190627023506 75 292 0.0 0.0 0.00 0.00 0.00 31 1019.3
20190627023007 76 247 1.0 2.0 0.00 0.00 0.00 30 1019.2
20190627022505 77 122 0.0 0.0 0.00 0.00 0.00 29 1018.9
20190627022006 77 67 0.0 0.0 0.00 0.00 0.00 27 1018.9
20190627021506 78 67 0.0 0.0 0.00 0.00 0.00 27 1018.9
20190627021006 80 67 0.0 0.0 0.00 0.00 0.00 24 1018.9
20190627020506 81 67 0.0 0.0 0.00 0.00 0.00 24 1018.9
20190627020007 81 67 0.0 1.0 0.00 0.00 0.00 24 1018.9
20190627015506 81 67 0.0 2.0 0.00 0.00 0.00 25 1018.9
20190627015006 82 90 1.0 3.0 0.00 0.00 0.00 24 1018.9
20190627014505 83 68 2.0 3.0 0.00 0.00 0.00 23 1018.7
20190627014006 83 247 3.0 4.0 0.00 0.00 0.00 22 1018.7
20190627013506 84 247 2.0 3.0 0.00 0.00 0.00 23 1018.6
20190627013006 85 279 1.0 3.0 0.00 0.00 0.00 23 1018.5
20190627012506 86 292 0.0 1.0 0.00 0.00 0.00 22 1018.5
20190627012007 86 292 0.0 0.0 0.00 0.00 0.00 21 1018.5
20190627011506 87 292 0.0 1.0 0.00 0.00 0.00 21 1018.5
20190627011006 86 292 0.0 0.0 0.00 0.00 0.00 21 1018.5
20190627010506 86 256 0.0 0.0 0.00 0.00 0.00 21 1018.4
20190627010007 86 288 1.0 3.0 0.00 0.00 0.00 21 1018.5
20190627005506 86 299 2.0 3.0 0.00 0.00 0.00 21 1018.4
20190627005006 85 248 1.0 2.0 0.00 0.00 0.00 21 1018.5
20190627004506 85 292 1.0 3.0 0.00 0.00 0.00 21 1018.5
20190627004007 84 290 2.0 4.0 0.00 0.00 0.00 19 1018.5
20190627003505 85 262 2.0 3.0 0.00 0.00 0.00 19 1018.5
20190627003007 86 292 1.0 3.0 0.00 0.00 0.00 17 1018.5
20190627002505 86 52 0.0 0.0 0.00 0.00 0.00 16 1018.5
20190627002006 86 67 1.0 3.0 0.00 0.00 0.00 16 1018.5
20190627001505 86 64 3.0 4.0 0.00 0.00 0.00 15 1018.5
20190627001007 87 67 2.0 3.0 0.00 0.00 0.00 15 1018.5
20190627000506 87 67 1.0 3.0 0.00 0.00 0.00 15 1018.2
20190627000006 87 292 0.0 2.0 0.00 0.00 0.00 14 1018.2
20190626235505 88 311 2.0 4.0 0.00 0.00 0.00 14 1018.1
20190626235005 88 22 2.0 2.0 0.00 0.00 0.00 14 1018.3
20190626234506 87 59 1.0 4.0 0.00 0.00 0.00 14 1018.1
20190626234006 87 67 2.0 4.0 0.00 0.00 0.00 14 1018.2
20190626233505 87 86 4.0 8.0 0.00 0.00 0.00 15 1018.3
20190626233007 86 57 1.0 3.0 0.00 0.00 0.00 17 1018.2
20190626232506 86 29 1.0 3.0 0.00 0.00 0.00 18 1018.1
20190626232006 84 42 2.0 3.0 0.00 0.00 0.00 17 1018.5
20190626231506 85 157 0.0 0.0 0.00 0.00 0.00 17 1018.7
20190626231006 85 202 1.0 1.0 0.00 0.00 0.00 16 1018.5
20190626230507 84 112 0.0 1.0 0.00 0.00 0.00 15 1018.5
20190626230007 85 360 2.0 3.0 0.00 0.00 0.00 16 1018.3
20190626225506 85 103 3.0 5.0 0.00 0.00 0.00 16 1018.3
20190626225006 84 67 1.0 1.0 0.00 0.00 0.00 15 1018.5
20190626224506 86 112 1.0 3.0 0.00 0.00 0.00 16 1018.4
20190626224006 86 189 2.0 5.0 0.00 0.00 0.00 16 1018.5
20190626223505 87 114 1.0 2.0 0.00 0.00 0.00 16 1018.5
20190626223007 87 112 1.0 2.0 0.00 0.00 0.00 15 1018.3
20190626222517 87 107 2.0 4.0 0.00 0.00 0.00 15 1018.5
20190626222006 87 26 1.0 3.0 0.00 0.00 0.00 15 1018.4
20190626221506 88 112 2.0 4.0 0.00 0.00 0.00 15 1018.2
20190626221006 89 67 4.0 6.0 0.00 0.00 0.00 14 1018.3
20190626220506 89 26 0.0 1.0 0.00 0.00 0.00 14 1018.4
20190626215505 86 109 2.0 3.0 0.00 0.00 0.00 15 1018.5
20190626215006 87 80 1.0 3.0 0.00 0.00 0.00 16 1018.5
20190626214505 87 157 0.0 0.0 0.00 0.00 0.00 15 1018.6
20190626214006 87 203 1.0 3.0 0.00 0.00 0.00 15 1018.9
20190626213506 89 292 2.0 3.0 0.00 0.00 0.00 15 1018.9
20190626213007 89 279 1.0 4.0 0.00 0.00 0.00 15 1018.8
20190626212505 89 22 0.0 2.0 0.00 0.00 0.00 15 1018.8
20190626212006 89 333 2.0 5.0 0.00 0.00 0.00 15 1018.7
20190626211506 88 22 1.0 3.0 0.00 0.00 0.00 14 1018.8
20190626211006 87 60 0.0 2.0 0.00 0.00 0.00 15 1018.9
20190626210506 86 195 1.0 3.0 0.00 0.00 0.00 16 1018.8
20190626210007 87 112 1.0 2.0 0.00 0.00 0.00 16 1018.9
20190626205506 87 112 1.0 3.0 0.00 0.00 0.00 16 1018.8
20190626205006 87 165 1.0 3.0 0.00 0.00 0.00 16 1018.7
20190626204506 87 174 1.0 3.0 0.00 0.00 0.00 16 1018.5
20190626204006 88 247 1.0 2.0 0.00 0.00 0.00 16 1018.7
20190626203505 88 167 0.0 1.0 0.00 0.00 0.00 16 1018.9
20190626203006 88 150 1.0 3.0 0.00 0.00 0.00 16 1018.5
20190626202506 88 240 0.0 2.0 0.00 0.00 0.00 15 1018.5
20190626202006 88 116 1.0 3.0 0.00 0.00 0.00 15 1018.6
20190626201506 88 128 2.0 4.0 0.00 0.00 0.00 15 1018.7
20190626201006 88 144 2.0 4.0 0.00 0.00 0.00 15 1018.8
20190626200506 88 148 2.0 5.0 0.00 0.00 0.00 15 1018.7
20190626200007 89 181 3.0 5.0 0.00 0.00 0.00 15 1018.8
20190626195505 89 183 2.0 5.0 0.00 0.00 0.00 16 1018.9
20190626195006 89 139 1.0 3.0 0.00 0.00 0.00 18 1018.9
20190626194506 88 161 1.0 4.0 0.00 0.00 0.00 19 1018.9
20190626194006 87 231 2.0 5.0 0.00 0.00 0.00 19 1019.0
20190626193506 86 233 1.0 5.0 0.00 0.00 0.00 19 1018.9
20190626193007 86 135 1.0 3.0 0.00 0.00 0.00 19 1019.0
20190626192506 86 124 1.0 3.0 0.00 0.00 0.00 22 1019.2
20190626192006 85 163 0.0 1.0 0.00 0.00 0.00 23 1019.3
20190626191505 85 112 1.0 2.0 0.00 0.00 0.00 23 1019.3
20190626191006 85 113 2.0 3.0 0.00 0.00 0.00 23 1019.3
20190626190506 84 145 1.0 4.0 0.00 0.00 0.00 24 1019.3
20190626190007 84 144 0.0 1.0 0.00 0.00 0.00 23 1019.5
20190626185506 84 157 0.0 1.0 0.00 0.00 0.00 23 1019.3
20190626185006 84 157 0.0 2.0 0.00 0.00 0.00 23 1019.5
20190626184506 84 157 1.0 3.0 0.00 0.00 0.00 24 1019.6
20190626184006 84 180 1.0 3.0 0.00 0.00 0.00 24 1019.7
20190626183506 83 181 2.0 4.0 0.00 0.00 0.00 25 1019.7
20190626183007 83 202 1.0 2.0 0.00 0.00 0.00 25 1019.7
20190626182506 82 204 2.0 4.0 0.00 0.00 0.00 26 1019.7
20190626182006 82 166 2.0 4.0 0.00 0.00 0.00 26 1019.7
20190626181506 82 235 3.0 4.0 0.00 0.00 0.00 27 1019.7
20190626181006 82 200 1.0 3.0 0.00 0.00 0.00 27 1019.8
20190626180506 81 210 2.0 4.0 0.00 0.00 0.00 28 1019.8
20190626180010 81 202 2.0 4.0 0.00 0.00 0.00 28 1020.0
20190626175506 80 193 1.0 3.0 0.00 0.00 0.00 28 1020.1
20190626175007 80 202 1.0 3.0 0.00 0.00 0.00 29 1020.1
20190626174506 80 202 1.0 3.0 0.00 0.00 0.00 29 1020.1
20190626174006 80 201 1.0 2.0 0.00 0.00 0.00 29 1020.1
20190626173506 80 208 0.0 2.0 0.00 0.00 0.00 28 1020.1
20190626173006 80 220 1.0 3.0 0.00 0.00 0.00 28 1020.1
20190626172506 79 165 1.0 2.0 0.00 0.00 0.00 28 1020.1
20190626172006 78 112 0.0 1.0 0.00 0.00 0.00 28 1020.3
20190626171506 78 135 1.0 2.0 0.00 0.00 0.00 29 1020.1
20190626171006 78 149 1.0 4.0 0.00 0.00 0.00 29 1020.2
20190626170506 77 180 0.0 1.0 0.00 0.00 0.00 29 1020.4
20190626170007 77 242 2.0 4.0 0.00 0.00 0.00 29 1020.3
20190626165506 77 212 1.0 2.0 0.00 0.00 0.00 30 1020.2
20190626165007 76 135 1.0 3.0 0.00 0.00 0.00 29 1020.2
20190626164506 76 135 0.0 2.0 0.00 0.00 0.00 30 1020.2
20190626164006 76 90 0.0 2.0 0.00 0.00 0.00 30 1020.5
20190626163506 75 247 1.0 3.0 0.00 0.00 0.00 29 1020.5
20190626163007 75 222 3.0 5.0 0.00 0.00 0.00 31 1020.5
20190626162506 75 211 2.0 4.0 0.00 0.00 0.00 31 1020.5
20190626162006 74 233 2.0 4.0 0.00 0.00 0.00 32 1020.6
20190626161506 74 224 2.0 4.0 0.00 0.00 0.00 33 1020.8
20190626161006 73 215 3.0 5.0 0.00 0.00 0.00 34 1020.9
20190626160505 72 157 1.0 2.0 0.00 0.00 0.00 35 1020.9
20190626160007 72 248 2.0 4.0 0.00 0.00 0.00 35 1020.9
20190626155506 70 247 0.0 0.0 0.00 0.00 0.00 35 1020.9
20190626155007 71 226 0.0 1.0 0.00 0.00 0.00 36 1020.9
20190626154506 70 202 2.0 3.0 0.00 0.00 0.00 36 1021.0
20190626154006 69 238 3.0 5.0 0.00 0.00 0.00 37 1021.2
20190626153506 69 276 0.0 1.0 0.00 0.00 0.00 39 1021.2
20190626153007 69 247 0.0 0.0 0.00 0.00 0.00 40 1021.3
20190626152506 69 228 2.0 4.0 0.00 0.00 0.00 41 1021.6
20190626152006 68 273 1.0 3.0 0.00 0.00 0.00 42 1021.6
20190626151506 68 276 1.0 2.0 0.00 0.00 0.00 42 1021.3
20190626151006 66 247 1.0 3.0 0.00 0.00 0.00 41 1021.5
20190626150505 67 247 1.0 3.0 0.00 0.00 0.00 42 1021.7
20190626150007 66 228 0.0 1.0 0.00 0.00 0.00 41 1021.7
20190626145506 67 229 1.0 3.0 0.00 0.00 0.00 41 1021.6
20190626145134 66 202 1.0 2.0 0.00 0.00 0.00 41 1021.7
20190626144506 66 206 2.0 3.0 0.00 0.00 0.00 40 1021.7
20190626144006 66 240 3.0 3.0 0.00 0.00 0.00 39 1021.7
20190626143506 67 226 3.0 4.0 0.00 0.00 0.00 39 1021.7
20190626143007 67 202 2.0 3.0 0.00 0.00 0.00 40 1021.6
20190626142506 65 180 0.0 2.0 0.00 0.00 0.00 40 1021.7
20190626142007 65 247 1.0 2.0 0.00 0.00 0.00 42 1021.7
20190626141506 65 247 0.0 0.0 0.00 0.00 0.00 43 1021.4
20190626141007 64 247 0.0 0.0 0.00 0.00 0.00 42 1021.3
20190626140506 64 225 0.0 1.0 0.00 0.00 0.00 42 1021.7
20190626140007 63 247 2.0 4.0 0.00 0.00 0.00 42 1021.5
20190626135506 63 202 1.0 2.0 0.00 0.00 0.00 43 1021.4
20190626135006 62 177 1.0 2.0 0.00 0.00 0.00 44 1021.3
20190626134506 62 202 0.0 2.0 0.00 0.00 0.00 45 1021.4
20190626134006 61 202 1.0 2.0 0.00 0.00 0.00 46 1021.5
20190626133506 61 202 0.0 1.0 0.00 0.00 0.00 48 1021.5
20190626133007 60 247 0.0 0.0 0.00 0.00 0.00 49 1021.4
20190626132506 59 247 0.0 0.0 0.00 0.00 0.00 52 1021.6
20190626132006 59 247 0.0 0.0 0.00 0.00 0.00 53 1021.6
20190626131505 58 247 0.0 2.0 0.00 0.00 0.00 53 1021.7
20190626131006 58 247 1.0 2.0 0.00 0.00 0.00 52 1021.5
20190626130506 58 247 1.0 2.0 0.00 0.00 0.00 51 1021.6
20190626130006 57 247 0.0 1.0 0.00 0.00 0.00 50 1021.5
20190626125506 58 247 0.0 2.0 0.00 0.00 0.00 51 1021.3
20190626125007 57 225 0.0 0.0 0.00 0.00 0.00 51 1021.3
20190626124506 57 202 0.0 0.0 0.00 0.00 0.00 52 1021.4
20190626124006 56 247 0.0 0.0 0.00 0.00 0.00 53 1021.4
20190626123506 56 157 0.0 1.0 0.00 0.00 0.00 52 1021.3
20190626123006 55 247 0.0 0.0 0.00 0.00 0.00 51 1021.3
20190626122506 57 247 0.0 0.0 0.00 0.00 0.00 52 1021.3
20190626122006 56 247 0.0 0.0 0.00 0.00 0.00 50 1021.3
20190626121506 56 247 0.0 0.0 0.00 0.00 0.00 49 1021.3
20190626121006 55 247 0.0 0.0 0.00 0.00 0.00 48 1021.3
20190626120506 55 247 0.0 1.0 0.00 0.00 0.00 49 1021.3
20190626120007 54 250 0.0 1.0 0.00 0.00 0.00 50 1021.3
20190626115506 53 292 0.0 0.0 0.00 0.00 0.00 52 1021.1
20190626115006 52 292 0.0 0.0 0.00 0.00 0.00 53 1020.9
20190626114505 51 270 0.0 1.0 0.00 0.00 0.00 53 1020.9
20190626114006 52 270 0.0 0.0 0.00 0.00 0.00 55 1020.9
20190626113506 51 270 0.0 0.0 0.00 0.00 0.00 55 1020.9
20190626113007 51 270 0.0 0.0 0.00 0.00 0.00 55 1020.9
20190626112506 51 270 0.0 0.0 0.00 0.00 0.00 54 1020.9
20190626112006 51 270 0.0 0.0 0.00 0.00 0.00 54 1020.9
20190626111506 51 270 0.0 0.0 0.00 0.00 0.00 54 1020.9
20190626111006 53 270 0.0 0.0 0.00 0.00 0.00 53 1020.9
20190626110505 53 270 0.0 0.0 0.00 0.00 0.00 52 1020.9
20190626110007 53 270 0.0 0.0 0.00 0.00 0.00 52 1020.9
20190626105505 53 270 0.0 0.0 0.00 0.00 0.00 52 1020.9
20190626105007 54 270 0.0 0.0 0.00 0.00 0.00 51 1020.9